Hourly Data Report for September 11, 2017

All times are specified in Local Standard Time (LST). Add 1 hour to adjust for Daylight Saving Time where and when it is observed.

MISCOU ISLAND (AUT)
NEW BRUNSWICK

48°00'32.002" N
64°29'39.008" W
4.00 m
8103050
71719
WMI

Download Data

Hourly Data (September 2017)
Hourly Data Report for September 11, 2017
Temp Definition
°C
Dew Point Temp Definition
°C
Rel Hum Definition
%
Wind Dir Definition
10's deg

Wind Spd Definition
km/h
Visibility Definition
km
Stn Press Definition
kPa
Hmdx Definition


Wind Chill Definition


Weather Definition


TIME
00:00 12.9 11.1 89 26 14   101.83     LegendNANA
01:00 13.2 11.7 91 24 13   101.75     LegendNANA
02:00 13.8 12.1 90 27 13   101.69     LegendNANA
03:00 13.8 11.7 87 27 12   101.69     LegendNANA
04:00 14.0 11.5 85 32 18   101.71     LegendNANA
05:00 14.5 11.3 81 36 28   101.72     LegendNANA
06:00 14.2 11.1 82 35 24   101.80     LegendNANA
07:00 14.2 11.1 81 36 29   101.79     LegendNANA
08:00 14.8 10.7 77 36 29   101.79     LegendNANA
09:00 15.4 11.1 76 36 25   101.84     LegendNANA
10:00 15.7 11.1 74 1 23   101.88     LegendNANA
11:00 15.9 11.2 73 2 15   101.91     LegendNANA
12:00 16.0 11.7 76 1 18   101.84     LegendNANA
13:00 14.8 10.8 77 4 20   101.80     LegendNANA
14:00 14.8 10.8 77 4 27   101.69     LegendNANA
15:00 14.8 10.8 77 4 22   101.63     LegendNANA
16:00 14.8 10.7 76 4 21   101.59     LegendNANA
17:00 15.0 10.7 76 4 19   101.56     LegendNANA
18:00 14.9 10.7 76 4 16   101.55     LegendNANA
19:00 14.1 11.1 83 35 18   101.56     LegendNANA
20:00 12.7 10.6 87 30 8   101.53     LegendNANA
21:00 12.4 10.8 90 30 8   101.51     LegendNANA
22:00 12.7 11.0 89 32 11   101.50     LegendNANA
23:00 12.6 11.0 90 31 9   101.51     LegendNANA

Notes on Data Quality.

Legend

  • E = Estimated
  • M = Missing
  • NA = Not Available
  • ‡ = Partner data that is not subject to review by the National Climate Archives
Date modified: